STARLINK-36079

Last updated on Fri Dec 19 2025 00:02:08 GMT+0000 (Coordinated Universal Time)

1 66897U 25283V 25352.58336806 -.01532097 00000+0 -10051-1 0 9998 2 66897 53.1551 44.3568 0001066 64.8478 97.2793 15.78043739 3364
UTC large
Height (km)
Speed (km/s)
/
Latitude / Longitude
Inclination (degrees)
Orbital Period (minutes)
Azimuth
Elevation
Range (km)
Doppler Factor

Next 0 passes for location: London (51.5072 / 0.1276)

Sorry there are no passes over London.